Regional Weather Roundup
Issued by NWS Goodland, KS

Home | Current Version | Previous Version | Text Only | Print | Product List | Glossary Off
Versions: 1 2 3 4 5 6 7 8 9 10 11 12 13 14 15 16 17 18 19 20 21 22 23 24 25 26 27 28 29 30 31 32 33 34 35 36 37 38 39 40 41 42 43 44 45 46 47 48 49 50

286
ASUS43 KGLD 300459
RWRGLD

GOODLAND FORECAST AREA HOURLY WEATHER ROUNDUP
NATIONAL WEATHER SERVICE GOODLAND KS
1100 PM MDT WED MAR 29 2017

...OFFICIAL OBSERVATIONS...

CITY           SKY/WX    TMP DP  RH WIND       PRES   REMARKS
GOODLAND KS    CLEAR     36  34  92 NW14      29.89F
HILL CITY KS   CLOUDY    41  39  93 N22G30    29.82F
IMPERIAL NEB   CLEAR     38  35  89 NW12      29.92F
MCCOOK NEB     CLOUDY    41  38  89 N14       29.88F
AKRON CO       CLEAR     35  33  92 S5        29.94F
BURLINGTON CO  CLEAR     35  33  92 NW8       29.91F
LIMON CO       CLEAR     28  28 100 NW5       29.97F
$$

...UNOFFICIAL OBSERVATIONS...

CITY           SKY/WX    TMP DP  RH WIND       PRES   REMARKS
NORTON KS      CLOUDY    39  34  81 N17G26    29.83F
SHARON SPRINGS   N/A     38  36  91 NW14        N/A
TRENTON NEB      N/A     36  32  85 NW8         N/A
KIT CARSON CO    N/A     34  30  86 CALM        N/A
YUMA CO        FAIR      32  30  93 NW6       29.93F
$$




USA.gov is the U.S. government's official web portal to all federal, state and local government web resources and services.